Location: Unspecified
(0.0000°N, 0.0000°E)
Time: 21:02:00
(UTC+00:00)

LEMUR 2 NIMBUS2000 - Visible Passes

Search period start: 14 January 2025 00:00
Search period end: 24 January 2025 00:00
Orbit: 490 x 508 km, 97.5° (Epoch: 14 January)

Date Brightness Start Highest point End Pass type
(mag) Time Alt. Az. Time Alt. Az. Time Alt. Az.
14 Jan ? 19:30:48 10° NNW 19:33:30 20° W 19:36:12 10° SW visible
15 Jan ? 19:10:11 10° N 19:13:37 42° W 19:17:04 10° SSW visible
16 Jan ? 18:50:06 10° NNE 18:53:43 82° ESE 18:57:20 10° S visible
18 Jan ? 19:45:47 10° NW 19:47:17 12° W 19:48:48 10° WSW visible
19 Jan ? 19:24:17 10° NNW 19:27:18 25° WNW 19:30:20 10° SW visible
20 Jan ? 19:03:45 10° N 19:07:17 56° WNW 19:10:52 10° SSW visible
21 Jan ? 18:43:42 10° NNE 18:47:15 61° E 18:50:52 10° S visible
23 Jan ? 19:38:20 10° NW 19:40:35 16° W 19:42:50 10° WSW visible
